{"data":{"norad_id":59404,"epoch":"2026-09-21T07:01:18.562080Z","epoch_age_seconds":96819,"freshness":"FRESH","line1":"1 59404U 24064G   26264.29257595  .00000484  00000+0  27097-4 0  9996","line2":"2 59404  43.0008 340.4488 0001160 234.4103 125.6641 15.27580234139471","mean_motion":15.27580234,"eccentricity":0.000116,"inclination_deg":43.0008,"raan_deg":340.4488,"arg_perigee_deg":234.4103,"mean_anomaly_deg":125.6641,"bstar":2.7097e-5,"rev_number":13947,"period_min":94.266734273547,"perigee_km":482.2524978537,"apogee_km":483.84429286542,"semimajor_km":6861.1853953596,"source":"CELESTRAK","updated_at":"2026-09-22T09:00:48.914419Z"}}